Regional Weather Roundup
Issued by NWS Sterling, VA

Home | Current Version | Previous Version | Graphics & Text | Print | Product List | Glossary On
Versions: 1 2 3 4 5 6 7 8 9 10 11 12 13 14 15 16 17 18 19 20 21 22 23 24 25 26 27 28 29 30 31 32 33 34 35 36 37 38 39 40 41 42 43 44 45 46 47 48 49 50
000
ASUS41 KLWX 181210
RWRLWX

REGIONAL WEATHER ROUNDUP
NATIONAL WEATHER SERVICE BALTIMORE MD/WASHINGTON DC
800 AM EDT THU SEP 18 2014

Note: "FAIR" indicates few or no clouds below 12,000 feet
with no significant weather and/or obstructions to visibility.
 TC=TEMPERATURE CELSIUS

 * =Non NWS site. Station does not report precipitation (e.g. rain,
    snow, etc.), thunder, or fog.

DCZ001-MDZ009-015-VAZ040>042-051-053>054-181300-
WASHINGTON METRO

CITY           SKY/WX    TMP DP  RH WIND       PRES   REMARKS
WASHINGTON NAT CLOUDY    66  56  70 CALM      30.01R
DULLES         PTSUNNY   57  54  89 NW5       30.01R
ANDREWS AFB    PTSUNNY   60  57  91 CALM      30.00R
QUANTICO       PTSUNNY   62  57  83 NW6       30.02R
COLLEGE PARK*  PTSUNNY   59  59 100 CALM      30.00R
LEESBURG*      CLOUDY    59  55  88 CALM      30.02R
GAITHERSBURG*  CLOUDY    57  55  94 CALM      30.04R

$$

MDZ006>007-011-014-181300-
BALTIMORE METRO

CITY           SKY/WX    TMP DP  RH WIND       PRES   REMARKS
BWI AIRPORT    PTSUNNY   59  55  87 CALM      30.00R
MD SCIENCE CTR   N/A     64  54  69 MISG      30.01R
MARTIN STATE   PTSUNNY   59  57  94 CALM      30.02R
ANNAPOLIS      PTSUNNY   63  56  78 CALM      30.00R
FORT MEADE*    PTSUNNY   55  54  94 CALM      30.03R

$$

MDZ012-015-019>023-181300-
MARYLAND EASTERN SHORE

CITY           SKY/WX    TMP DP  RH WIND       PRES   REMARKS
OCEAN CITY     SUNNY     58  55  90 CALM      30.00S
SALISBURY      SUNNY     56  51  84 CALM      30.00S
BAY BRIDGE AP*   N/A     64  57  77 CALM      30.00R
CAMBRIDGE*     MOSUNNY   55  52  88 CALM      30.00R
EASTON*        PTSUNNY   59  59 100 CALM      30.03S

$$

MDZ017>025-181300-
SOUTHERN MARYLAND

CITY           SKY/WX    TMP DP  RH WIND       PRES   REMARKS
PATUXENT RIVER PTSUNNY   63  59  87 CALM      30.00R
ST INIGOES     CLOUDY    61  57  87 CALM      30.00R
LEONARDTOWN*   CLOUDY    59  55  88 CALM      30.01S

$$

MDZ003>005-181300-
NORTH CENTRAL MARYLAND

CITY           SKY/WX    TMP DP  RH WIND       PRES   REMARKS
FREDERICK*     PTSUNNY   55  54  94 CALM      30.04R
HAGERSTOWN APT PTSUNNY   54  49  83 NW3       30.01R
WESTMINSTER*   CLOUDY    57  52  82 CALM      30.01R

$$

MDZ501>502-181300-
WESTERN MARYLAND

CITY           SKY/WX    TMP DP  RH WIND       PRES   REMARKS
OAKLAND*       CLOUDY    52  48  87 CALM      30.06R
CUMBERLAND*    MOSUNNY   52  50  93 CALM      30.07R

$$

VAZ025>031-181300-
SHENANDOAH VALLEY

CITY           SKY/WX    TMP DP  RH WIND       PRES   REMARKS
WINCHESTER*    CLOUDY    54  52  94 CALM      30.02R
STAUNTON*      PTSUNNY   52  50  92 CALM      30.04R

$$

WVZ021-048>050-054>055-181300-
EASTERN WEST VIRGINIA PANHANDLE

CITY           SKY/WX    TMP DP  RH WIND       PRES   REMARKS
MARTINSBURG    PTSUNNY   54  50  86 CALM      30.02R
PETERSBURG*    CLOUDY    52  50  93 CALM      30.05R FOG

$$

VAZ036>039-050-181300-
CENTRAL FOOTHILLS

CITY           SKY/WX    TMP DP  RH WIND       PRES   REMARKS
CHARLOTTESVILL MOSUNNY   56  54  93 CALM      30.01R
ORANGE*        PTSUNNY   55  54  94 CALM      30.02R

$$

VAZ055>057-181300-
NORTH AND CENTRAL PIEDMONT

CITY           SKY/WX    TMP DP  RH WIND       PRES   REMARKS
FREDERICKSBRG* MOSUNNY   58  58 100 CALM      30.00R
STAFFORD*      CLOUDY    56  56 100 CALM      30.05R

$$

NCZ024-NYZ072-PAZ021-071-VAZ022-071-181300-
OTHER REGIONAL OBSERVATIONS

CITY           SKY/WX    TMP DP  RH WIND       PRES   REMARKS
NEW YORK CITY  PTSUNNY   59  47  64 VRB3      30.03R
PHILADELPHIA   MOSUNNY   60  51  72 N5        30.01S
ROANOKE        CLOUDY    58  56  93 CALM      30.04R
RICHMOND       MOSUNNY   60  58  92 CALM      30.00R
RALEIGH        MOSUNNY   63  59  87 NE3       30.00R

$$

ANZ530>537-181300-
MARINE OBSERVATIONS

STATION/POSITION TIME  TEMP    WIND        PRES
                       AIR SEA DIR/SP/G
                 (UTC) (F)     (DEG/KT/KT) (MB)
THOMAS PT LIGHT  1200   66 74  270/  5/  6 1016.9R
BALT KEY BRIDGE  1200   62      10/  5/  5 1015.7R
COVE POINT       1200   67     250/  3/  4 1015.7R
LEWISETTA        1200   65 73  260/  3/  4 1015.5R
SOLOMONS ISLAND  1200      76                N/A
PINEY POINT      1200           20/  1/  2   N/A

$$



USA.gov is the U.S. government's official web portal to all federal, state and local government web resources and services.